カタログに戻る

COSMOS 252 DEB

運用中LEO
NORAD 18490·DEBRIS·🇷🇺 Russia

打ち上げ Nov 1, 1968 から Baikonur Cosmodrome

Loading…

次のパス (今後24時間)

TLE

最新Source: Space-Track

元期: Sep 14, 2026, 12:44 UTC

1 18490U 68097EN  26257.53097643  .00006506  00000-0  97157-3 0  9990
2 18490  62.7361 249.2989 0426279   4.2424 356.2067 14.28929074725186

AllMySatでCOSMOS 252 DEBをリアルタイム追跡

Download on the App Store